Orbital Elements at Epoch 2459200.5 (2020-Dec-17.0) TDB
Reference: JPL 19 (heliocentric ecliptic J2000)
Element | Value | Uncertainty (1-sigma) | Units |
e | .2393167289758993 | 3.2678e-08 | |
a | 2.352744888596848 | 1.1216e-08 | au |
q | 1.789693677743083 | 7.5258e-08 | au |
i | 6.658021510067567 | 4.699e-06 | deg |
node | 323.1505214513796 | 3.6425e-05 | deg |
peri | 130.0274770786212 | 3.8601e-05 | deg |
M | 259.7576241828558 | 1.4571e-05 | deg |
tp | 2459567.536736879179 (2021-Dec-19.03673688) | 5.513e-05 | TDB |
period | 1318.137406455066 3.61 | 9.4256e-06 2.581e-08 | d yr |
n | .2731126498929776 | 1.9529e-09 | deg/d |
Q | 2.915796099450612 | 1.39e-08 | au |
|
| | Orbit Determination Parameters
Additional Information
|